Find Starlink 30953

NORAD ID: 58491 Int'l Des: 2023-186 Owner: SPXS Country: US Constellation: starlink operational
LEOCIRCULAR

当前视图

正在加载3D地球...

About Starlink 30953

Starlink 30953 (NORAD 58491) is a starlink constellation satellite (v2 mini) launched Dec 3, 2023 by SPXS of US. It operates in LEO, CIRCULAR orbit with a mass of 730.00 kg.

即将过境

Passes for default location (London). Set your location on the main map for personalized predictions.

高度历史

Loading altitude history...

两行轨道根数

1 58491U 23186U 26265.91778288 .00002613 00000-0 10442-3 0 9994
2 58491 43.0026 233.6639 0001372 265.2300 94.8395 15.27580955158051
Epoch: Sep 22, 2026 • Age: 8 hours

当前状态

高度 485.3 km
远地点 / 近地点 N/A
速度 7.63 km/s
星下点 34.75°N, 174.41°W
发射日期 Dec 3, 2023
运行时间 2.8 years
类型 internet

技术详情

分类 Payload
质量 730.00 kg
干质量 700.00 kg
长度 0.30 m
跨度 29.00 m
形状 ? Box + pan
制造商 SPXS
平台类型 Starlink V2M
阶段状态 In Orbit
所有者/国家 SPXS/US

Most Searched